Tracking 19176 objects as of 28-May-2018
HD Live streaming from Space Station
objects crossing your sky now

MOLNIYA 1-90

Track MOLNIYA 1-90 now!
10-day predictions
MOLNIYA 1-90 is classified as:


NORAD ID: 24960
Int'l Code: 1997-054A
Perigee: 527.0 km
Apogee: 25,742.4 km
Inclination: 62.7 °
Period: 451.9 minutes
Semi major axis: 19505 km
RCS: 12.4754 m2 (large)
Launch date: September 24, 1997
Source: Commonwealth of Independent States (former USSR) (CIS)
Launch site: PLESETSK MISSILE AND SPACE COMPLEX (PKMTR)
aabbcc
Your satellite tracking list
Your tracking list is empty




NASA's NSSDC Master Catalog

Two Line Element Set (TLE):
1 24960U 97054A   18147.70298188  .00000193  00000-0  19128-3 0  9997
2 24960  62.6920 176.1586 6463606 295.1804  12.7898  3.18685125160867
Source of the keplerian elements: AFSPC